McCook, NE

1:51 AM CDT on July 29, 2016 (GMT -0500)
McCook Municipal

Weather History for KMCK - December, 2013

Change the Weather History Date:

Sunday, December 8, 2013

  Actual Average Record
Temperature  
Mean Temperature 5 °F 29 °F  
Max Temperature 13 °F 42 °F 68 °F (1970)
Min Temperature -3 °F 16 °F -21 °F (1909)
Degree Days  
Heating Degree Days 59    
Moisture  
Dew Point 3 °F    
Average Humidity 79    
Maximum Humidity 88    
Minimum Humidity 68    
Precipitation  
Precipitation T in 0.02 in 0.08 in (2007)
Month to date precipitation T 0.18  
Year to date precipitation 12.61 22.07  
Sea Level Pressure  
Sea Level Pressure 30.08 in    
Wind  
Wind Speed 9 mph (NE)    
Max Wind Speed 14 mph    
Max Gust Speed -    
Visibility 4 miles    
Events Snow    
T = Trace of Precipitation, MM = Missing Value Source: NWS Daily Summary

Daily Weather History Graph

Daily Weather History Graph

Search for Another Location

Airport or City:

Trip Planner

Search our weather history database for the weather conditions in past years. The results will help you decide how hot, cold, wet, or windy it might be!

Date:

Astronomy

Dec. 08, 2013 Rise Set
Actual Time 7:52 AM CST 5:16 PM CST
Civil Twilight 7:21 AM CST 5:46 PM CST
Nautical Twilight 6:47 AM CST 6:20 PM CST
Astronomical Twilight 6:15 AM CST 6:53 PM CST
Moon 12:13 PM CST (12/8) No Moon Set
Length of Visible Light 10h 24m
Length of Day
9h 23m
Waxing Crescent, 40% of the Moon is Illuminated
Dec 8
Waxing Crescent
Dec 9
First Quarter
Dec 17
Full
Dec 25
Last Quarter
Jan 1
New

Hourly Weather History & Observations

Time (CST) Temp. Windchill Dew Point Humidity Pressure Visibility Wind Dir Wind Speed Gust Speed Precip Events Conditions
12:53 AM 8.1 °F -8.4 °F 3.9 °F 83% 30.25 in 2.5 mi East 13.8 mph - 0.00 in Snow Light Snow
1:53 AM 8.1 °F -7.0 °F 3.9 °F 83% 30.20 in 2.5 mi ESE 11.5 mph - 0.00 in Snow Light Snow
2:16 AM 8.6 °F -5.5 °F 3.2 °F 79% 30.03 in 3.0 mi ESE 10.4 mph - 0.00 in Snow Light Snow
2:23 AM 8.6 °F -5.5 °F 3.2 °F 79% 30.03 in 2.5 mi ESE 10.4 mph - 0.00 in Snow Light Snow
2:53 AM 8.1 °F -7.7 °F 3.9 °F 83% 30.17 in 2.0 mi ESE 12.7 mph - 0.00 in Snow Light Snow
3:04 AM 8.6 °F -6.3 °F 3.2 °F 79% 30.01 in 1.5 mi ESE 11.5 mph - 0.00 in Snow Light Snow
3:27 AM 8.6 °F -6.3 °F 3.2 °F 79% 30.00 in 0.8 mi ESE 11.5 mph - 0.00 in Snow Light Snow
3:42 AM 8.6 °F -5.5 °F 3.2 °F 79% 30.00 in 1.0 mi East 10.4 mph - 0.00 in Snow Light Snow
3:50 AM 8.6 °F -3.7 °F 3.2 °F 79% 29.99 in 1.2 mi East 8.1 mph - 0.00 in Snow Light Snow
3:53 AM 8.1 °F -5.3 °F 3.9 °F 83% 30.14 in 1.2 mi East 9.2 mph - 0.00 in Snow Light Snow
4:15 AM 8.6 °F -4.7 °F 3.2 °F 79% 29.98 in 3.0 mi East 9.2 mph - 0.00 in Snow Light Snow
4:43 AM 8.6 °F -2.6 °F 3.2 °F 79% 29.96 in 2.5 mi East 6.9 mph - 0.00 in Snow Light Snow
4:53 AM 8.1 °F -4.3 °F 3.9 °F 83% 30.11 in 2.5 mi East 8.1 mph - 0.00 in Snow Light Snow
5:53 AM 8.1 °F -3.2 °F 3.9 °F 83% 30.12 in 2.5 mi East 6.9 mph - 0.00 in Snow Light Snow
6:24 AM 8.6 °F -3.7 °F 3.2 °F 79% 29.95 in 3.0 mi East 8.1 mph - 0.00 in Snow Light Snow
6:35 AM 8.6 °F -2.6 °F 3.2 °F 79% 29.94 in 3.0 mi East 6.9 mph - 0.00 in Snow Light Snow
6:53 AM 8.1 °F -4.3 °F 3.9 °F 83% 30.10 in 3.0 mi East 8.1 mph - 0.00 in Snow Light Snow
7:53 AM 8.1 °F -3.2 °F 3.9 °F 83% 30.10 in 3.0 mi ENE 6.9 mph - 0.00 in Snow Light Snow
8:12 AM 8.6 °F -1.3 °F 3.2 °F 79% 29.94 in 2.5 mi ENE 5.8 mph - 0.00 in Snow Light Snow
8:53 AM 8.1 °F -4.3 °F 3.9 °F 83% 30.10 in 1.8 mi ENE 8.1 mph - 0.00 in Snow Light Snow
9:53 AM 9.0 °F -2.2 °F 3.9 °F 80% 30.10 in 1.5 mi ENE 6.9 mph - 0.00 in Snow Light Snow
10:53 AM 10.0 °F -1.9 °F 5.0 °F 80% 30.09 in 2.0 mi ENE 8.1 mph - 0.00 in Snow Light Snow
11:19 AM 10.4 °F 4.0 °F 5.0 °F 79% 29.96 in 1.8 mi Variable 3.5 mph - 0.00 in Snow Light Snow
11:26 AM 10.4 °F - 5.0 °F 79% 29.96 in 2.5 mi Calm Calm - 0.00 in Snow Light Snow
11:53 AM 10.9 °F - 5.0 °F 77% 30.11 in 3.0 mi Calm Calm - 0.00 in Snow Light Snow
12:53 PM 10.9 °F 2.9 °F 5.0 °F 77% 30.07 in 6.0 mi NNW 4.6 mph - 0.00 in   Haze
1:53 PM 12.0 °F 2.7 °F 6.1 °F 77% 30.07 in 1.8 mi NNW 5.8 mph - 0.00 in Snow Light Snow
2:14 PM 12.2 °F 2.9 °F 6.8 °F 79% 29.92 in 0.8 mi NW 5.8 mph - 0.00 in Snow Light Snow
2:35 PM 12.2 °F 0.7 °F 6.8 °F 79% 29.93 in 0.2 mi NW 8.1 mph - 0.00 in Snow Heavy Snow
2:53 PM 12.0 °F 2.7 °F 7.0 °F 80% 30.08 in 0.5 mi WNW 5.8 mph - 0.00 in Snow Snow
3:00 PM 12.2 °F 1.7 °F 6.8 °F 79% 29.94 in 1.0 mi WNW 6.9 mph - 0.00 in Snow Light Snow
3:28 PM 12.2 °F -0.2 °F 6.8 °F 79% 29.95 in 1.5 mi WNW 9.2 mph - 0.00 in Snow Light Snow
3:53 PM 12.9 °F 3.8 °F 8.1 °F 81% 30.11 in 1.0 mi WNW 5.8 mph - 0.00 in Snow Light Snow
4:26 PM 12.2 °F 0.7 °F 8.6 °F 85% 29.99 in 3.0 mi West 8.1 mph - 0.00 in Snow Light Snow
4:36 PM 12.2 °F -0.2 °F 6.8 °F 79% 29.99 in 6.0 mi West 9.2 mph - 0.00 in   Haze
4:53 PM 12.0 °F 1.5 °F 6.1 °F 77% 30.14 in 10.0 mi West 6.9 mph - 0.00 in   Mostly Cloudy
5:53 PM 10.0 °F 0.4 °F 3.9 °F 76% 30.18 in 10.0 mi WSW 5.8 mph - N/A   Clear
6:53 PM 7.0 °F -1.7 °F 3.9 °F 87% 30.20 in 9.0 mi South 4.6 mph - N/A   Clear
7:53 PM -0.0 °F -14.2 °F -2.9 °F 88% 30.24 in 9.0 mi WNW 8.1 mph - N/A   Clear
8:53 PM 3.0 °F -14.8 °F -4.0 °F 73% 30.27 in 10.0 mi WNW 13.8 mph - N/A   Clear
9:53 PM 1.0 °F -16.6 °F -6.0 °F 72% 30.32 in 10.0 mi NW 12.7 mph - N/A   Clear
10:53 PM -0.0 °F -18.0 °F -8.0 °F 69% 30.33 in 10.0 mi NNW 12.7 mph - N/A   Clear
11:53 PM -2.9 °F -18.8 °F -11.0 °F 68% 30.35 in 10.0 mi NW 9.2 mph - N/A   Clear